Regional Weather Roundup
Issued by NWS

Home | Current Version | Previous Version | Graphics & Text | Print | Product List | Glossary On
Versions: 1 2 3 4 5 6 7 8 9 10 11 12 13 14 15 16 17 18 19 20 21 22 23 24 25 26 27 28 29 30 31 32 33 34 35 36 37 38 39 40 41 42 43 44 45 46 47 48 49 50
000
ASUS43 KMKX 252100
RWRWI

WISCONSIN REGIONAL WEATHER ROUNDUP
NATIONAL WEATHER SERVICE MILWAUKEE/SULLIVAN WI
400 PM CDT SAT APR 25 2015

NOTE: "FAIR" INDICATES FEW OR NO CLOUDS BELOW 12,000 FEET WITH NO
SIGNIFICANT WEATHER AND/OR OBSTRUCTIONS TO VISIBILITY.

WIZ001-002-006>008-014>016-023>028-252200-
NORTHWEST WISCONSIN

CITY           SKY/WX    TMP DP  RH WIND       PRES   REMARKS
SUPERIOR ARPT  SUNNY     40  28  63 NE16G24   30.00S WCI  31
ASHLAND        SUNNY     47  26  44 N20G28    29.99S
HAYWARD        SUNNY     56  28  34 N14G22    29.90R
SIREN          CLOUDY    61  23  23 NE12G21   29.87S
CUMBERLAND     SUNNY     57  23  26 NE13      29.86S
RICE LAKE      SUNNY     60  18  19 E8G16     29.87S
CHETEK         SUNNY     59  22  24 NE9G18    29.86S
LADYSMITH      CLOUDY    59  21  23 E9        29.87F
EAU CLAIRE     NOT AVBL
MENOMONIE      SUNNY     60  15  17 NE12G21   29.84F
NEW RICHMOND   SUNNY     60  13  15 E9G20     29.85S
OSCEOLA        SUNNY     61  21  21 NE12G21   29.88S
$$

WIZ003>005-009-010-017-018-252200-
NORTH CENTRAL WISCONSIN

CITY           SKY/WX    TMP DP  RH WIND       PRES   REMARKS
MANITOWISH WTR SUNNY     54  17  23 NE9G16    29.88R
ARBOR VITAE    SUNNY     57  18  21 NE6       29.87R
WOODRUFF       SUNNY     57  18  21 NE6       29.87R
RHINELANDER    SUNNY     55  16  21 NE9       29.87S
EAGLE RIVER    SUNNY     55  11  17 NE8G17    29.86F
LAND O LAKES   SUNNY     56  14  19 NE10G17   29.88S
PHILLIPS       MOSUNNY   56  24  28 NE12      29.85F
TOMAHAWK       CLOUDY    57  19  22 E7G16     29.86F
MEDFORD        SUNNY     57  22  25 E10G16    29.84S
MERRILL        MOSUNNY   57  18  22 E13       29.85F
$$

WIZ029-030-035-036-043>047-252200-
CENTRAL WISCONSIN

CITY           SKY/WX    TMP DP  RH WIND       PRES   REMARKS
WAUSAU         CLOUDY    57  15  19 E14G23    29.83S
MOSINEE        NOT AVBL
MARSHFIELD     MOSUNNY   58  21  24 E14       29.84S
STEVENS POINT  SUNNY     53  21  28 E14       29.85S
WAUPACA        SUNNY     56   7  14 NE9G16    29.87S
WAUTOMA        NOT AVBL
WISC RAPIDS    SUNNY     56  11  16 E16G25    29.86R
CAMP DOUGLAS   NOT AVBL
$$

WIZ011>013-019>022-031-037>040-048>050-252200-
NORTHEAST WISCONSIN

CITY           SKY/WX    TMP DP  RH WIND       PRES   REMARKS
ANTIGO         CLOUDY    54  18  24 NE14      29.86S
SHAWANO        CLOUDY    54  20  26 E13       29.88S
OCONTO         CLOUDY    46  11  24 E12G18    29.91R
STURGEON BAY   CLOUDY    45  10  24 E10       29.93S
GREEN BAY      MOSUNNY   48  21  34 NE17      29.89S
MANITOWOC      NOT AVBL
APPLETON       MOSUNNY   50   7  17 NE17G23   29.87R
CLINTONVILLE   CLOUDY    52  12  20 E13       29.86F
OSHKOSH        MOSUNNY   51  27  39 NE18      29.85R
$$

WIZ032>034-041-042-053>061-252200-
SOUTHWEST WISCONSIN

CITY           SKY/WX    TMP DP  RH WIND       PRES   REMARKS
LA CROSSE      CLOUDY    56  30  37 SE7       29.82S
SPARTA         CLOUDY    57  23  26 E12G21    29.82S
VIROQUA        CLOUDY    50  32  50 NE13      29.81S
BOSCOBEL       CLOUDY    53  36  52 NE9G17    29.80R
PRAIRIE DU CHI CLOUDY    52  35  52 E12G25    29.78R
PLATTEVILLE    CLOUDY    50  39  66 NE21G28   29.74S
$$

WIZ056-057-062-063-064-067-068-252200-
SOUTH CENTRAL WISCONSIN

CITY           SKY/WX    TMP DP  RH WIND       PRES   REMARKS
REEDSBURG      CLOUDY    50  26  39 E13       29.81S
BARABOO/DELLS  CLOUDY    49  24  36 E16G22    29.82S
LONE ROCK      NOT AVBL
MINERAL POINT  CLOUDY    50  36  57 NE17G25   29.76S
MADISON        CLOUDY    49  35  58 NE16      29.81S
MIDDLETON      CLOUDY    50  36  58 E12       29.80F
WATERTOWN      CLOUDY    46  34  62 NE12G18   29.81S
MONROE         CLOUDY    46  37  71 NE25      29.74F
JANESVILLE     CLOUDY    46  36  66 E21G26    29.76F
$$

WIZ051-052-058>065-066-070>072-252200-
SOUTHEAST WISCONSIN

CITY           SKY/WX    TMP DP  RH WIND       PRES   REMARKS
MILWAUKEE      CLOUDY    40  30  67 N22       29.83F WCI  30
WAUKESHA       CLOUDY    43  27  52 NE13G18   29.83F
MILWAUKEE/TIMM CLOUDY    41  25  52 NE12G17   29.84F
RACINE         CLOUDY    41  32  70 N16G24    29.82F
BURLINGTON     CLOUDY    42  31  66 NE14G22   29.79F
KENOSHA        CLOUDY    45  35  68 NE16G22   29.79F
FOND DU LAC    MOSUNNY   54  21  27 NE16      29.84S
SHEBOYGAN      MOSUNNY   47  25  42 N22       29.86S
WEST BEND      CLOUDY    45  21  39 NE14      29.84R
JUNEAU         CLOUDY    47  26  44 E13       29.83S
$$

LSZ147-162-252200-
LAKE SUPERIOR

STATION/POSITION TIME  TEMP    WIND        PRES    WAVE
                       AIR SEA DIR/SP/G            HT/PER
                 (UTC) (F)     (DEG/KT/KT) (MB)    (FT/S)
W MID LAKE BUOY  1950   35 35   40/ 14/ 17 1017.9F   3/ 4
DEVILS ISLAND    2000   35      40/ 18/ 21 1017.2F
PORT WING        2000   37      40/ 21/ 27 1015.9R
SAXON HARBOR     1900   37      10/  8/ 11 1015.2F
$$

LMZ867-665-643>646-252200-
LAKE MICHIGAN

STATION/POSITION TIME  TEMP    WIND        PRES    WAVE
                       AIR SEA DIR/SP/G            HT/PER
                 (UTC) (F)     (DEG/KT/KT) (MB)    (FT/S)
CHAMBERS ISLAND  2000   39      10/ 12/ 14 1013.5F
NORTHPORT PIER   2000   45      50/  9/ 15 1013.5F
SISTER BAY       2017   51     100/ 12/ 23   N/A
KEWAUNEE LAKESHO 2000   40      30/ 17/ 23 1011.4F
SHEBOYGAN LAKESH 2000   38      20/ 20/ 24 1012.0F
PORT WASHINGTON  2000   43      40/ 17/ 20 1011.5
MILWAUKEE LAKESH 2000   39      10/ 15/ 19   N/A
KENOSHA   LAKESH 2000   40      20/ 21/ 22 1009.5F
$$

TC  - TEMPERATURE IN CELSIUS
VSB - VISIBILITY IN STATUTE MILES
WCI - WIND CHILL INDEX
HX  - HEAT INDEX



USA.gov is the U.S. government's official web portal to all federal, state and local government web resources and services.